FW3646 Weather Reports


Display with metric or nautical units.
time (UTC)temp
F
wind
direction
speed
MPH
gust
MPH
rain 1hr
in
rain 24hr
in
rain mn
in
humidity
%
barometer
mb
20260503183532 75 154 0.0 0.0 0.00 0.00 0.00 29 1012.4
20260503183032 76 154 0.0 0.0 0.00 0.00 0.00 28 1012.4
20260503182533 76 154 0.0 0.0 0.00 0.00 0.00 28 1012.4
20260503182032 77 154 0.0 0.0 0.00 0.00 0.00 27 1012.3
20260503181534 77 154 0.0 0.0 0.00 0.00 0.00 26 1012.3
20260503181328 77 154 0.0 0.0 0.00 0.00 0.00 26 1012.3
20260503180533 78 154 0.0 0.0 0.00 0.00 0.00 26 1012.3
20260503180007 78 154 0.0 0.0 0.00 0.00 0.00 25 1012.2
20260503175509 78 154 0.0 0.0 0.00 0.00 0.00 25 1012.3
20260503175235 79 154 0.0 0.0 0.00 0.00 0.00 24 1012.3
20260503174452 79 154 0.0 2.0 0.00 0.00 0.00 24 1012.2
20260503173933 79 155 0.0 0.0 0.00 0.00 0.00 25 1012.2
20260503173430 80 155 0.0 2.0 0.00 0.00 0.00 25 1012.2
20260503172925 80 155 0.0 2.0 0.00 0.00 0.00 23 1012.3
20260503172651 80 147 0.0 2.0 0.00 0.00 0.00 23 1012.2
20260503171915 80 137 0.0 3.0 0.00 0.00 0.00 23 1012.2
20260503171427 80 137 0.0 3.0 0.00 0.00 0.00 23 1012.2
20260503170913 81 155 1.0 4.0 0.00 0.00 0.00 22 1012.2
20260503170412 81 190 1.0 4.0 0.00 0.00 0.00 22 1013.4
20260503150807 85 151 1.0 9.0 0.00 0.00 0.00 22 1012.7
20260503150308 85 4 1.0 5.0 0.00 0.00 0.00 22 1012.7
20260503140252 89 202 1.0 5.0 0.00 0.00 0.00 19 1013.4
20260503131144 89 110 1.0 7.0 0.00 0.00 0.00 22 1014.3
20260503130642 89 123 1.0 7.0 0.00 0.00 0.00 23 1014.4
20260503130138 89 52 2.0 5.0 0.00 0.00 0.00 26 1014.5
20260503120112 88 86 2.0 8.0 0.00 0.00 0.00 26 1016.7
20260503110544 85 162 1.0 5.0 0.00 0.00 0.00 28 1015.9
20260503090456 76 202 1.0 5.0 0.00 0.00 0.00 40 1018.4
20260503081353 71 167 1.0 4.0 0.00 0.00 0.00 45 1018.0
20260503081345 72 131 1.0 4.0 0.00 0.00 0.00 44 1018.0
20260503080340 70 149 1.0 4.0 0.00 0.00 0.00 45 1018.0
20260503080119 70 137 1.0 4.0 0.00 0.00 0.00 47 1017.9
20260503072833 64 191 1.0 5.0 0.00 0.00 0.00 53 1018.0
20260503072326 63 197 1.0 4.0 0.00 0.00 0.00 54 1017.9
20260503071823 62 38 1.0 4.0 0.00 0.00 0.00 56 1018.0
20260503071321 61 39 0.0 3.0 0.00 0.00 0.00 56 1018.0
20260503070823 60 31 1.0 3.0 0.00 0.00 0.00 57 1018.1
20260503070548 59 88 1.0 3.0 0.00 0.00 0.00 58 1018.1
20260503060236 50 33 1.0 3.0 0.00 0.00 0.00 73 1018.4
20260503054734 48 8 1.0 3.0 0.00 0.00 0.00 76 1018.3
20260503054234 47 334 0.0 2.0 0.00 0.00 0.00 77 1017.1
20260503053731 47 333 0.0 1.0 0.00 0.00 0.00 78 1018.3
20260503053225 46 333 0.0 0.0 0.00 0.00 0.00 78 1018.3
20260503052719 46 321 0.0 0.0 0.00 0.00 0.00 79 1018.2
20260503052438 45 321 0.0 0.0 0.00 0.00 0.00 79 1018.2
20260503051706 45 321 0.0 0.0 0.00 0.00 0.00 79 1018.2
20260503051653 45 321 0.0 0.0 0.00 0.00 0.00 79 1018.2
20260503050636 44 321 0.0 0.0 0.00 0.00 0.00 79 1018.1
20260503050416 44 321 0.0 0.0 0.00 0.00 0.00 79 1016.7
20260503045633 44 321 0.0 0.0 0.00 0.00 0.00 79 1018.1
20260503045132 44 321 0.0 0.0 0.00 0.00 0.00 79 1018.1
20260503044632 44 321 0.0 0.0 0.00 0.00 0.00 79 1018.1
20260503044105 44 321 0.0 0.0 0.00 0.00 0.00 79 1018.1
20260503043604 44 321 0.0 0.0 0.00 0.00 0.00 79 1018.1
20260503043346 44 321 0.0 0.0 0.00 0.00 0.00 79 1018.1
20260503042602 43 321 0.0 0.0 0.00 0.00 0.00 79 1016.6
20260503042343 43 321 0.0 0.0 0.00 0.00 0.00 78 1018.1
20260503041603 43 321 0.0 0.0 0.00 0.00 0.00 78 1018.1
20260503041104 43 321 0.0 0.0 0.00 0.00 0.00 78 1018.1
20260503040600 44 321 0.0 0.0 0.00 0.00 0.00 78 1018.1
20260503040052 44 321 0.0 0.0 0.00 0.00 0.00 78 1018.0
20260503035552 44 321 0.0 0.0 0.00 0.00 0.00 78 1018.0
20260503035044 44 321 0.0 0.0 0.00 0.00 0.00 78 1017.9
20260503034543 44 321 0.0 0.0 0.00 0.00 0.00 77 1017.9
20260503034036 44 321 0.0 0.0 0.00 0.00 0.00 76 1018.0
20260503033535 44 321 0.0 0.0 0.00 0.00 0.00 76 1017.8
20260503033010 44 321 0.0 0.0 0.00 0.00 0.00 76 1017.9
20260503032505 44 321 0.0 0.0 0.00 0.00 0.00 76 1017.8
20260503032004 44 321 0.0 0.0 0.00 0.00 0.00 76 1017.9
20260503031502 45 321 0.0 0.0 0.00 0.00 0.00 76 1017.9
20260503031002 45 321 0.0 0.0 0.00 0.00 0.00 75 1017.8
20260503030446 45 321 0.0 0.0 0.00 0.00 0.00 75 1017.9
20260503025938 45 321 0.0 0.0 0.00 0.00 0.00 75 1017.9
20260503025435 45 321 0.0 0.0 0.00 0.00 0.00 75 1017.9
20260503024938 45 321 0.0 0.0 0.00 0.00 0.00 74 1017.8
20260503024431 45 321 0.0 0.0 0.00 0.00 0.00 74 1017.9
20260503023932 45 321 0.0 0.0 0.00 0.00 0.00 73 1017.9
20260503023431 46 321 0.0 0.0 0.00 0.00 0.00 72 1017.8
20260503022915 46 321 0.0 0.0 0.00 0.00 0.00 73 1017.9
20260503022416 46 321 0.0 0.0 0.00 0.00 0.00 72 1017.9
20260503021907 46 321 0.0 0.0 0.00 0.00 0.00 72 1018.0
20260503021405 46 321 0.0 0.0 0.00 0.00 0.00 71 1018.0
20260503020905 46 321 0.0 0.0 0.00 0.00 0.00 71 1018.1
20260503020337 46 321 0.0 0.0 0.00 0.00 0.00 71 1018.1
20260503015835 47 321 0.0 0.0 0.00 0.00 0.00 71 1018.1
20260503015332 47 321 0.0 0.0 0.00 0.00 0.00 70 1018.1
20260503014832 47 321 0.0 0.0 0.00 0.00 0.00 69 1016.8
20260503014311 47 321 0.0 0.0 0.00 0.00 0.00 68 1018.1
20260503013805 47 321 0.0 0.0 0.00 0.00 0.00 68 1018.1
20260503013303 47 321 0.0 0.0 0.00 0.00 0.00 68 1018.1
20260503013256 47 321 0.0 0.0 0.00 0.00 0.00 67 1018.1
20260503012235 47 321 0.0 0.0 0.00 0.00 0.00 67 1018.1
20260503011708 47 321 0.0 0.0 0.00 0.00 0.00 67 1018.2
20260503011141 48 321 0.0 0.0 0.00 0.00 0.00 66 1018.2
20260503010637 48 321 0.0 0.0 0.00 0.00 0.00 66 1018.2
20260503010133 48 321 0.0 0.0 0.00 0.00 0.00 66 1018.3
20260503005635 48 321 0.0 1.0 0.00 0.00 0.00 66 1018.3
20260503005401 48 321 0.0 3.0 0.00 0.00 0.00 66 1018.3
20260503004852 48 319 0.0 3.0 0.00 0.00 0.00 65 1018.4
20260503004330 48 326 0.0 1.0 0.00 0.00 0.00 65 1018.3
20260503003607 49 326 0.0 1.0 0.00 0.00 0.00 65 1018.2
20260503003108 49 326 0.0 0.0 0.00 0.00 0.00 65 1018.3
20260503002606 49 326 0.0 0.0 0.00 0.00 0.00 65 1018.4
20260503002107 49 326 0.0 0.0 0.00 0.00 0.00 64 1018.4
20260503001605 49 326 0.0 0.0 0.00 0.00 0.00 64 1018.5
20260503001104 49 326 0.0 0.0 0.00 0.00 0.00 64 1018.5
20260503000606 49 326 0.0 0.0 0.00 0.00 0.00 63 1018.5
20260503000053 49 326 0.0 1.0 0.00 0.00 0.00 63 1018.6
20260502235544 49 326 0.0 3.0 0.00 0.00 0.00 63 1018.7
20260502235536 50 324 0.0 3.0 0.00 0.00 0.00 63 1018.8
20260502234535 50 332 0.0 0.0 0.00 0.00 0.00 62 1018.7
20260502234034 50 332 0.0 0.0 0.00 0.00 0.00 62 1018.6
20260502233535 50 332 0.0 0.0 0.00 0.00 0.00 62 1018.7
20260502233033 50 332 0.0 2.0 0.00 0.00 0.00 61 1017.9
20260502232533 51 332 0.0 2.0 0.00 0.00 0.00 61 1017.9
20260502232309 51 343 0.0 0.0 0.00 0.00 0.00 61 1018.8
20260502231523 51 343 0.0 0.0 0.00 0.00 0.00 61 1018.9
20260502231012 51 343 0.0 1.0 0.00 0.00 0.00 61 1018.9
20260502230525 51 343 0.0 1.0 0.00 0.00 0.00 60 1018.8
20260502230009 51 343 0.0 1.0 0.00 0.00 0.00 61 1018.7
20260502225507 52 343 0.0 2.0 0.00 0.00 0.00 60 1018.8
20260502224942 52 343 0.0 2.0 0.00 0.00 0.00 60 1018.8
20260502224709 52 266 0.0 0.0 0.00 0.00 0.00 59 1018.9
20260502223933 52 266 0.0 0.0 0.00 0.00 0.00 59 1018.9
20260502223434 52 253 0.0 0.0 0.00 0.00 0.00 58 1019.0
20260502222911 53 253 0.0 0.0 0.00 0.00 0.00 57 1019.1
20260502222653 53 253 0.0 1.0 0.00 0.00 0.00 57 1019.1
20260502221908 53 231 0.0 1.0 0.00 0.00 0.00 57 1019.1
20260502221407 53 228 0.0 2.0 0.00 0.00 0.00 56 1019.1
20260502221128 53 224 0.0 2.0 0.00 0.00 0.00 55 1019.0
20260502220334 53 206 0.0 0.0 0.00 0.00 0.00 54 1019.0
20260502215834 54 206 0.0 0.0 0.00 0.00 0.00 54 1019.0
20260502215331 54 206 0.0 0.0 0.00 0.00 0.00 54 1019.0
20260502215102 54 206 0.0 0.0 0.00 0.00 0.00 54 1019.0
20260502214315 54 206 0.0 0.0 0.00 0.00 0.00 53 1019.0
20260502214042 55 206 0.0 0.0 0.00 0.00 0.00 53 1019.0
20260502213314 55 206 0.0 0.0 0.00 0.00 0.00 53 1018.4
20260502212811 55 206 0.0 0.0 0.00 0.00 0.00 53 1019.0
20260502212306 55 206 0.0 0.0 0.00 0.00 0.00 53 1018.6
20260502211809 56 206 0.0 0.0 0.00 0.00 0.00 53 1019.0
20260502211536 56 206 0.0 0.0 0.00 0.00 0.00 52 1019.1
20260502210806 56 206 0.0 0.0 0.00 0.00 0.00 53 1019.1
20260502210321 57 206 0.0 0.0 0.00 0.00 0.00 53 1019.1
20260502210306 56 206 0.0 0.0 0.00 0.00 0.00 53 1019.1
20260502205549 57 206 0.0 0.0 0.00 0.00 0.00 51 1019.1
20260502204805 58 205 0.0 0.0 0.00 0.00 0.00 51 1019.1
20260502204305 58 205 0.0 0.0 0.00 0.00 0.00 50 1019.2
20260502203749 58 205 0.0 0.0 0.00 0.00 0.00 49 1019.2
20260502203245 59 205 0.0 0.0 0.00 0.00 0.00 48 1019.1
20260502202732 59 205 0.0 0.0 0.00 0.00 0.00 47 1019.3
20260502202516 60 205 0.0 0.0 0.00 0.00 0.00 47 1019.2
20260502201731 60 206 0.0 0.0 0.00 0.00 0.00 45 1019.2
20260502201459 60 206 0.0 0.0 0.00 0.00 0.00 44 1019.3
20260502200732 61 206 0.0 0.0 0.00 0.00 0.00 43 1019.3
20260502200231 61 206 0.0 0.0 0.00 0.00 0.00 43 1019.4
20260502195731 62 193 0.0 0.0 0.00 0.00 0.00 43 1019.3
20260502195216 62 193 0.0 0.0 0.00 0.00 0.00 41 1019.3
20260502194710 62 193 0.0 0.0 0.00 0.00 0.00 40 1019.3
20260502194212 63 193 0.0 0.0 0.00 0.00 0.00 38 1019.3
20260502193707 63 193 0.0 0.0 0.00 0.00 0.00 38 1019.2
20260502193207 64 193 0.0 0.0 0.00 0.00 0.00 37 1019.2
20260502192708 64 193 0.0 0.0 0.00 0.00 0.00 36 1019.1
20260502192206 65 193 0.0 0.0 0.00 0.00 0.00 34 1019.1
20260502191939 65 193 0.0 0.0 0.00 0.00 0.00 35 1019.1
20260502191204 66 193 0.0 0.0 0.00 0.00 0.00 34 1019.0
20260502190414 67 193 0.0 0.0 0.00 0.00 0.00 32 1019.3
20260502185633 68 193 0.0 0.0 0.00 0.00 0.00 31 1019.0
20260502185135 68 193 0.0 0.0 0.00 0.00 0.00 30 1018.9
20260502184907 69 193 0.0 0.0 0.00 0.00 0.00 28 1019.0
20260502184132 69 193 0.0 0.0 0.00 0.00 0.00 28 1019.0
20260502183906 70 193 0.0 0.0 0.00 0.00 0.00 27 1019.0